time, Switch, Flow(0), Analog(2)
yyyy/mm/dd HH:MM:SS.fff, True=FILTERED|False=TOTAL, L/min, V
2023/06/22 09:00:02.221, True, 4.305, 0.127642
2023/06/22 09:00:02.725, True, 4.317, 0.127260
2023/06/22 09:00:03.221, True, 4.377, 0.127108
2023/06/22 09:00:03.725, True, 3.645, 0.127947
2023/06/22 09:00:04.230, True, 2.653, 0.128023
2023/06/22 09:00:04.725, True, 2.023, 0.126955
2023/06/22 09:00:05.229, True, 1.660, 0.127871
2023/06/22 09:00:05.733, True, 1.655, 0.127489
2023/06/22 09:00:06.229, True, 1.349, 0.127642
2023/06/22 09:00:06.733, True, 1.659, 0.125963
2023/06/22 09:00:07.229, True, 1.686, 0.126574
2023/06/22 09:00:07.733, True, 1.326, 0.126421
2023/06/22 09:00:08.237, True, 1.657, 0.127108
2023/06/22 09:00:08.733, True, 1.684, 0.125734
2023/06/22 09:00:09.237, True, 1.656, 0.125963
2023/06/22 09:00:09.741, True, 1.659, 0.126574
2023/06/22 09:00:10.237, True, 1.683, 0.126802
2023/06/22 09:00:10.741, True, 1.660, 0.127413
2023/06/22 09:00:11.245, True, 1.656, 0.125429
2023/06/22 09:00:11.741, True, 1.685, 0.128176
2023/06/22 09:00:12.245, True, 1.660, 0.127489
2023/06/22 09:00:12.749, True, 1.657, 0.127108
2023/06/22 09:00:13.245, True, 1.684, 0.126421
2023/06/22 09:00:13.749, True, 1.658, 0.126345
2023/06/22 09:00:14.253, True, 1.658, 0.125048
2023/06/22 09:00:14.749, True, 1.685, 0.124437
2023/06/22 09:00:15.253, True, 1.991, 0.129320
2023/06/22 09:00:15.757, True, 1.656, 0.128328
2023/06/22 09:00:16.261, True, 1.658, 0.128405
2023/06/22 09:00:16.757, True, 1.349, 0.129244
2023/06/22 09:00:17.260, True, 1.656, 0.127337
2023/06/22 09:00:17.757, True, 2.022, 0.127031
2023/06/22 09:00:18.261, True, 1.326, 0.125048
2023/06/22 09:00:18.765, True, 1.658, 0.125811
2023/06/22 09:00:19.261, True, 1.348, 0.127947
2023/06/22 09:00:19.765, True, 1.989, 0.125582
2023/06/22 09:00:20.269, True, 1.658, 0.126497
2023/06/22 09:00:20.765, True, 1.685, 0.127718
2023/06/22 09:00:21.269, True, 1.657, 0.123598
2023/06/22 09:00:21.773, True, 1.658, 0.127718
2023/06/22 09:00:22.269, True, 1.685, 0.127947
2023/06/22 09:00:22.773, True, 1.658, 0.126879
2023/06/22 09:00:23.277, True, 1.658, 0.123903
2023/06/22 09:00:23.773, True, 1.685, 0.127184
2023/06/22 09:00:24.277, True, 1.989, 0.124666
2023/06/22 09:00:24.781, True, 1.660, 0.126040
2023/06/22 09:00:25.277, True, 1.348, 0.127565
2023/06/22 09:00:25.781, True, 1.987, 0.126497
2023/06/22 09:00:26.285, True, 1.659, 0.126726
2023/06/22 09:00:26.781, True, 1.347, 0.126116
2023/06/22 09:00:27.285, True, 1.658, 0.125963
2023/06/22 09:00:27.789, True, 1.658, 0.127031
2023/06/22 09:00:28.285, True, 1.686, 0.127947
2023/06/22 09:00:28.789, True, 1.658, 0.128023
2023/06/22 09:00:29.292, True, 1.657, 0.127871
2023/06/22 09:00:29.789, True, 1.685, 0.123293
2023/06/22 09:00:30.293, True, 1.658, 0.126726
2023/06/22 09:00:30.797, True, 1.658, 0.127794
2023/06/22 09:00:31.293, True, 1.685, 0.127031
2023/06/22 09:00:31.797, True, 1.658, 0.126726
2023/06/22 09:00:32.301, True, 1.659, 0.126421
2023/06/22 09:00:32.797, True, 1.685, 0.123217
2023/06/22 09:00:33.301, True, 1.658, 0.126650
2023/06/22 09:00:33.805, True, 1.658, 0.125811
2023/06/22 09:00:34.301, True, 1.686, 0.126116
2023/06/22 09:00:34.805, True, 1.657, 0.126955
2023/06/22 09:00:35.309, True, 1.659, 0.125429
2023/06/22 09:00:35.805, True, 1.684, 0.125582
2023/06/22 09:00:36.309, True, 1.658, 0.128634
2023/06/22 09:00:36.813, True, 1.658, 0.126650
2023/06/22 09:00:37.309, True, 1.685, 0.127565
2023/06/22 09:00:37.813, True, 1.658, 0.127718
2023/06/22 09:00:38.317, True, 1.658, 0.129625
2023/06/22 09:00:38.813, True, 1.685, 0.127031
2023/06/22 09:00:39.316, True, 1.658, 0.127108
2023/06/22 09:00:39.821, True, 1.658, 0.125582
2023/06/22 09:00:40.317, True, 1.685, 0.128405
2023/06/22 09:00:40.821, True, 1.658, 0.130617
2023/06/22 09:00:41.325, True, 1.658, 0.130846
2023/06/22 09:00:41.821, True, 1.685, 0.128710
2023/06/22 09:00:42.325, True, 1.658, 0.126802
2023/06/22 09:00:42.829, True, 1.659, 0.130846
2023/06/22 09:00:43.325, True, 1.683, 0.130922
2023/06/22 09:00:43.829, True, 1.658, 0.130007
2023/06/22 09:00:44.333, True, 1.326, 0.131456
2023/06/22 09:00:44.829, True, 1.684, 0.131914
2023/06/22 09:00:45.333, True, 1.659, 0.132143
2023/06/22 09:00:45.837, True, 1.658, 0.134051
2023/06/22 09:00:46.341, True, 1.657, 0.134203
2023/06/22 09:00:46.837, True, 1.685, 0.134356
2023/06/22 09:00:47.341, True, 1.658, 0.134508
2023/06/22 09:00:47.837, True, 1.685, 0.133135
2023/06/22 09:00:48.341, True, 1.659, 0.135119
2023/06/22 09:00:48.845, True, 1.659, 0.134356
2023/06/22 09:00:49.341, True, 1.683, 0.134737
2023/06/22 09:00:49.845, True, 1.659, 0.135195
2023/06/22 09:00:50.349, True, 1.657, 0.136721
2023/06/22 09:00:50.845, True, 1.684, 0.136034
2023/06/22 09:00:51.349, True, 1.658, 0.136797
2023/06/22 09:00:51.853, True, 1.658, 0.137789
2023/06/22 09:00:52.349, True, 1.685, 0.138247
2023/06/22 09:00:52.853, True, 1.658, 0.137789
2023/06/22 09:00:53.357, True, 1.658, 0.137789
2023/06/22 09:00:53.853, True, 1.685, 0.137636
2023/06/22 09:00:54.357, True, 1.658, 0.136416
2023/06/22 09:00:54.861, True, 1.658, 0.139162
2023/06/22 09:00:55.357, True, 1.685, 0.138476
2023/06/22 09:00:55.861, True, 1.658, 0.138628
2023/06/22 09:00:56.365, True, 1.659, 0.136110
2023/06/22 09:00:56.861, True, 1.684, 0.136339
2023/06/22 09:00:57.365, True, 1.658, 0.136797
2023/06/22 09:00:57.869, True, 1.660, 0.140383
2023/06/22 09:00:58.365, True, 1.347, 0.137331
2023/06/22 09:00:58.869, True, 1.660, 0.139391
2023/06/22 09:00:59.373, True, 1.656, 0.136263
2023/06/22 09:00:59.869, True, 1.684, 0.137636
2023/06/22 09:01:00.373, True, 1.658, 0.138552
2023/06/22 09:01:00.877, True, 1.658, 0.136416
2023/06/22 09:01:01.381, True, 1.659, 0.139620
2023/06/22 09:01:01.877, True, 1.347, 0.136187
2023/06/22 09:01:02.381, True, 1.658, 0.138247
2023/06/22 09:01:02.885, True, 1.661, 0.140612
2023/06/22 09:01:03.381, True, 1.682, 0.138094
2023/06/22 09:01:03.885, True, 1.658, 0.140841
2023/06/22 09:01:04.389, True, 1.990, 0.137484
2023/06/22 09:01:04.885, True, 1.348, 0.137026
2023/06/22 09:01:05.389, True, 1.990, 0.135576
2023/06/22 09:01:05.893, True, 1.658, 0.137713
2023/06/22 09:01:06.389, True, 1.687, 0.139315
2023/06/22 09:01:06.893, True, 1.656, 0.139773
2023/06/22 09:01:07.397, True, 1.658, 0.138705
2023/06/22 09:01:07.893, True, 1.685, 0.139086
2023/06/22 09:01:08.397, True, 1.657, 0.139239
2023/06/22 09:01:08.901, True, 1.658, 0.139239
2023/06/22 09:01:09.397, True, 2.024, 0.139010
2023/06/22 09:01:09.901, True, 1.656, 0.138933
2023/06/22 09:01:10.405, True, 1.658, 0.139544
2023/06/22 09:01:10.900, True, 1.685, 0.139620
2023/06/22 09:01:11.405, True, 1.658, 0.139467
2023/06/22 09:01:11.909, True, 1.658, 0.139391
2023/06/22 09:01:12.405, True, 1.687, 0.140002
2023/06/22 09:01:12.909, True, 1.655, 0.141070
2023/06/22 09:01:13.413, True, 1.658, 0.138399
2023/06/22 09:01:13.909, True, 1.685, 0.138247
2023/06/22 09:01:14.413, True, 1.658, 0.139696
2023/06/22 09:01:14.917, True, 1.989, 0.139315
2023/06/22 09:01:15.413, True, 1.685, 0.140002
2023/06/22 09:01:15.917, True, 1.658, 0.139620
2023/06/22 09:01:16.420, True, 1.658, 0.140993
2023/06/22 09:01:16.917, True, 1.685, 0.140688
2023/06/22 09:01:17.421, True, 1.658, 0.139162
2023/06/22 09:01:17.925, True, 1.658, 0.140078
2023/06/22 09:01:18.421, True, 1.684, 0.137560
2023/06/22 09:01:18.925, True, 1.660, 0.139849
2023/06/22 09:01:19.429, True, 1.656, 0.137942
2023/06/22 09:01:19.933, True, 1.660, 0.140841
2023/06/22 09:01:20.429, True, 1.683, 0.140230
2023/06/22 09:01:20.933, True, 1.657, 0.138552
2023/06/22 09:01:21.429, True, 1.685, 0.138094
2023/06/22 09:01:21.933, True, 1.658, 0.140612
2023/06/22 09:01:22.437, True, 1.659, 0.140078
2023/06/22 09:01:22.941, True, 1.657, 0.139620
2023/06/22 09:01:23.437, True, 1.685, 0.139467
2023/06/22 09:01:23.941, True, 1.326, 0.138018
2023/06/22 09:01:24.445, True, 1.989, 0.140078
2023/06/22 09:01:24.941, True, 1.685, 0.139010
2023/06/22 09:01:25.445, True, 1.658, 0.139467
2023/06/22 09:01:25.948, True, 1.660, 0.139849
2023/06/22 09:01:26.445, True, 1.683, 0.140917
2023/06/22 09:01:26.949, True, 1.658, 0.140612
2023/06/22 09:01:27.452, True, 1.658, 0.139696
2023/06/22 09:01:27.949, True, 1.350, 0.137407
2023/06/22 09:01:28.452, True, 1.658, 0.138094
2023/06/22 09:01:28.957, True, 1.659, 0.140154
2023/06/22 09:01:29.452, True, 1.682, 0.138247
2023/06/22 09:01:29.957, True, 1.658, 0.139162
2023/06/22 09:01:30.461, True, 1.661, 0.139315
2023/06/22 09:01:30.957, True, 1.683, 0.136034
2023/06/22 09:01:31.460, True, 1.656, 0.139162
2023/06/22 09:01:31.957, True, 1.685, 0.137942
2023/06/22 09:01:32.461, True, 1.659, 0.139239
2023/06/22 09:01:32.965, True, 1.658, 0.140612
2023/06/22 09:01:33.461, True, 1.685, 0.139239
2023/06/22 09:01:33.965, True, 1.658, 0.139544
2023/06/22 09:01:34.469, True, 1.658, 0.138094
2023/06/22 09:01:34.965, True, 1.685, 0.136721
2023/06/22 09:01:35.469, True, 1.659, 0.137789
2023/06/22 09:01:35.973, True, 1.989, 0.137865
2023/06/22 09:01:36.469, True, 1.348, 0.137331
2023/06/22 09:01:36.973, True, 1.658, 0.140230
2023/06/22 09:01:37.477, True, 1.660, 0.139849
2023/06/22 09:01:37.973, True, 1.684, 0.137560
2023/06/22 09:01:38.477, True, 1.656, 0.139467
2023/06/22 09:01:38.981, True, 1.658, 0.140078
2023/06/22 09:01:39.477, True, 1.687, 0.138018
2023/06/22 09:01:39.981, True, 1.656, 0.136873
2023/06/22 09:01:40.477, True, 1.349, 0.138247
2023/06/22 09:01:40.981, True, 1.656, 0.137026
2023/06/22 09:01:41.485, True, 1.660, 0.135500
2023/06/22 09:01:41.981, True, 1.682, 0.140841
2023/06/22 09:01:42.485, True, 1.660, 0.137865
2023/06/22 09:01:42.989, True, 1.657, 0.138476
2023/06/22 09:01:43.485, True, 1.687, 0.137179
2023/06/22 09:01:43.989, True, 1.656, 0.138628
2023/06/22 09:01:44.493, True, 1.989, 0.139239
2023/06/22 09:01:44.997, True, 1.658, 0.138476
2023/06/22 09:01:45.493, True, 1.687, 0.139239
2023/06/22 09:01:45.997, True, 1.659, 0.140078
2023/06/22 09:01:46.501, True, 1.656, 0.138018
2023/06/22 09:01:46.997, True, 1.347, 0.137026
2023/06/22 09:01:47.501, True, 1.658, 0.136568
2023/06/22 09:01:48.005, True, 1.658, 0.138247
2023/06/22 09:01:48.509, True, 1.658, 0.137865
2023/06/22 09:01:49.005, True, 1.685, 0.139544
2023/06/22 09:01:49.509, True, 1.658, 0.139162
2023/06/22 09:01:50.013, True, 1.659, 0.138857
2023/06/22 09:01:50.509, True, 2.020, 0.137484
2023/06/22 09:01:51.013, True, 1.658, 0.138247
2023/06/22 09:01:51.509, True, 1.685, 0.138170
2023/06/22 09:01:52.013, True, 1.658, 0.137026
2023/06/22 09:01:52.517, True, 1.326, 0.138705
2023/06/22 09:01:53.013, True, 1.685, 0.137942
2023/06/22 09:01:53.517, True, 1.658, 0.138933
2023/06/22 09:01:54.021, True, 1.992, 0.137331
2023/06/22 09:01:54.517, True, 1.683, 0.139239
2023/06/22 09:01:55.021, True, 1.658, 0.138781
2023/06/22 09:01:55.525, True, 1.658, 0.139391
2023/06/22 09:01:56.021, True, 1.685, 0.137865
2023/06/22 09:01:56.525, True, 1.327, 0.137331
2023/06/22 09:01:57.029, True, 1.657, 0.138781
2023/06/22 09:01:57.525, True, 1.685, 0.137713
2023/06/22 09:01:58.029, True, 1.658, 0.135271
2023/06/22 09:01:58.533, True, 1.658, 0.138094
2023/06/22 09:01:59.029, True, 1.685, 0.137331
2023/06/22 09:01:59.532, True, 1.658, 0.137713
2023/06/22 09:02:00.037, True, 1.659, 0.138476
2023/06/22 09:02:00.533, True, 1.684, 0.135958
2023/06/22 09:02:01.037, True, 1.658, 0.136568
2023/06/22 09:02:01.541, True, 1.326, 0.139391
2023/06/22 09:02:02.037, True, 1.685, 0.137942
2023/06/22 09:02:02.541, True, 1.658, 0.137026
2023/06/22 09:02:03.045, True, 1.660, 0.138247
2023/06/22 09:02:03.540, True, 1.687, 0.137484
2023/06/22 09:02:04.045, True, 1.655, 0.136721
2023/06/22 09:02:04.549, True, 1.658, 0.135195
2023/06/22 09:02:05.052, True, 1.661, 0.136797
2023/06/22 09:02:05.548, True, 1.683, 0.135424
2023/06/22 09:02:06.053, True, 1.657, 0.135500
2023/06/22 09:02:06.557, True, 1.658, 0.137407
2023/06/22 09:02:07.053, True, 1.687, 0.136873
2023/06/22 09:02:07.557, True, 1.656, 0.138476
2023/06/22 09:02:08.061, True, 1.657, 0.137636
2023/06/22 09:02:08.557, True, 1.685, 0.137102
2023/06/22 09:02:09.061, True, 1.659, 0.136645
2023/06/22 09:02:09.565, True, 1.657, 0.137789
2023/06/22 09:02:10.061, True, 2.022, 0.134966
2023/06/22 09:02:10.565, True, 1.658, 0.135042
2023/06/22 09:02:11.069, True, 1.660, 0.137560
2023/06/22 09:02:11.565, True, 1.683, 0.137102
2023/06/22 09:02:12.068, True, 1.657, 0.137560
2023/06/22 09:02:12.573, True, 1.657, 0.135653
2023/06/22 09:02:13.069, True, 1.685, 0.137484
2023/06/22 09:02:13.573, True, 1.660, 0.136263
2023/06/22 09:02:14.076, True, 1.658, 0.137179
2023/06/22 09:02:14.573, True, 1.683, 0.136492
2023/06/22 09:02:15.077, True, 1.658, 0.138018
2023/06/22 09:02:15.581, True, 1.658, 0.137789
2023/06/22 09:02:16.077, True, 1.685, 0.137865
2023/06/22 09:02:16.581, True, 1.658, 0.135882
2023/06/22 09:02:17.085, True, 1.658, 0.135958
2023/06/22 09:02:17.581, True, 1.684, 0.137179
2023/06/22 09:02:18.085, True, 1.659, 0.136645
2023/06/22 09:02:18.589, True, 1.657, 0.138170
2023/06/22 09:02:19.084, True, 1.685, 0.136187
2023/06/22 09:02:19.589, True, 1.658, 0.137407
2023/06/22 09:02:20.085, True, 1.685, 0.137560
2023/06/22 09:02:20.589, True, 1.658, 0.136873
2023/06/22 09:02:21.093, True, 1.658, 0.136187
2023/06/22 09:02:21.589, True, 2.022, 0.136416
2023/06/22 09:02:22.092, True, 1.661, 0.136797
2023/06/22 09:02:22.597, True, 1.655, 0.135882
2023/06/22 09:02:23.093, True, 1.685, 0.136416
2023/06/22 09:02:23.597, True, 1.658, 0.137484
2023/06/22 09:02:24.101, True, 1.658, 0.135500
2023/06/22 09:02:24.597, True, 1.685, 0.137636
2023/06/22 09:02:25.101, True, 1.658, 0.137102
2023/06/22 09:02:25.605, True, 1.658, 0.135729
2023/06/22 09:02:26.101, True, 1.685, 0.135882
2023/06/22 09:02:26.605, True, 1.658, 0.136339
2023/06/22 09:02:27.109, True, 1.658, 0.135348
2023/06/22 09:02:27.605, True, 1.685, 0.135424
2023/06/22 09:02:28.109, True, 1.658, 0.136187
2023/06/22 09:02:28.613, True, 1.658, 0.136187
2023/06/22 09:02:29.109, True, 1.684, 0.133364
2023/06/22 09:02:29.613, True, 1.326, 0.135348
2023/06/22 09:02:30.117, True, 1.658, 0.135271
2023/06/22 09:02:30.613, True, 1.685, 0.135653
2023/06/22 09:02:31.117, True, 1.658, 0.135576
2023/06/22 09:02:31.621, True, 1.658, 0.136339
2023/06/22 09:02:32.117, True, 1.685, 0.137026
2023/06/22 09:02:32.621, True, 1.661, 0.134508
2023/06/22 09:02:33.125, True, 1.657, 0.137026
2023/06/22 09:02:33.621, True, 1.683, 0.134737
2023/06/22 09:02:34.125, True, 1.658, 0.135119
2023/06/22 09:02:34.629, True, 1.658, 0.133440
2023/06/22 09:02:35.125, True, 1.687, 0.135958
2023/06/22 09:02:35.629, True, 1.658, 0.136721
2023/06/22 09:02:36.133, True, 1.659, 0.135271
2023/06/22 09:02:36.629, True, 1.682, 0.134051
2023/06/22 09:02:37.133, True, 1.658, 0.136263
2023/06/22 09:02:37.637, True, 1.658, 0.137407
2023/06/22 09:02:38.133, True, 1.684, 0.134890
2023/06/22 09:02:38.637, True, 1.658, 0.136187
2023/06/22 09:02:39.141, True, 1.658, 0.134127
2023/06/22 09:02:39.637, True, 1.684, 0.137102
2023/06/22 09:02:40.141, True, 1.658, 0.135500
2023/06/22 09:02:40.644, True, 1.658, 0.137179
2023/06/22 09:02:41.141, True, 1.687, 0.134585
2023/06/22 09:02:41.645, True, 1.656, 0.134585
2023/06/22 09:02:42.149, True, 1.327, 0.135424
2023/06/22 09:02:42.645, True, 1.685, 0.134203
2023/06/22 09:02:43.149, True, 1.658, 0.135042
2023/06/22 09:02:43.653, True, 1.658, 0.134890
2023/06/22 09:02:44.149, True, 2.021, 0.133745
2023/06/22 09:02:44.653, True, 1.658, 0.133593
2023/06/22 09:02:45.157, True, 1.659, 0.135882
2023/06/22 09:02:45.653, True, 1.684, 0.135195
2023/06/22 09:02:46.157, True, 1.662, 0.135119
2023/06/22 09:02:46.660, True, 1.654, 0.136645
2023/06/22 09:02:47.157, True, 1.685, 0.134508
2023/06/22 09:02:47.661, True, 1.327, 0.134127
2023/06/22 09:02:48.165, True, 1.660, 0.134890
2023/06/22 09:02:48.661, True, 1.682, 0.132677
2023/06/22 09:02:49.165, True, 1.658, 0.134127
2023/06/22 09:02:49.669, True, 1.658, 0.136339
2023/06/22 09:02:50.165, True, 1.688, 0.135195
2023/06/22 09:02:50.669, True, 1.656, 0.135576
2023/06/22 09:02:51.173, True, 1.658, 0.135958
2023/06/22 09:02:51.669, True, 1.685, 0.133745
2023/06/22 09:02:52.172, True, 1.658, 0.136034
2023/06/22 09:02:52.677, True, 1.661, 0.137407
2023/06/22 09:02:53.181, True, 1.325, 0.133669
2023/06/22 09:02:53.676, True, 1.684, 0.136416
2023/06/22 09:02:54.181, True, 1.658, 0.134737
2023/06/22 09:02:54.677, True, 1.347, 0.132982
2023/06/22 09:02:55.180, True, 1.658, 0.136034
2023/06/22 09:02:55.685, True, 1.989, 0.136034
2023/06/22 09:02:56.189, True, 1.658, 0.136721
2023/06/22 09:02:56.684, True, 1.685, 0.134890
2023/06/22 09:02:57.188, True, 1.661, 0.134127
2023/06/22 09:02:57.685, True, 1.683, 0.134356
2023/06/22 09:02:58.189, True, 1.657, 0.134203
2023/06/22 09:02:58.693, True, 1.658, 0.135958
2023/06/22 09:02:59.197, True, 1.326, 0.134813
2023/06/22 09:02:59.693, True, 1.348, 0.134813
2023/06/22 09:03:00.196, True, 1.660, 0.135119
2023/06/22 09:03:00.701, True, 1.988, 0.135119
2023/06/22 09:03:01.197, True, 1.685, 0.135271
2023/06/22 09:03:01.701, True, 1.661, 0.133669
2023/06/22 09:03:02.205, True, 1.657, 0.134661
2023/06/22 09:03:02.701, True, 1.682, 0.133745
2023/06/22 09:03:03.205, True, 1.660, 0.136721
2023/06/22 09:03:03.709, True, 1.325, 0.135271
2023/06/22 09:03:04.205, True, 1.686, 0.136263
2023/06/22 09:03:04.709, True, 1.658, 0.134966
2023/06/22 09:03:05.213, True, 1.658, 0.134966
2023/06/22 09:03:05.709, True, 1.685, 0.133974
2023/06/22 09:03:06.213, True, 1.658, 0.134356
2023/06/22 09:03:06.717, True, 1.657, 0.132830
2023/06/22 09:03:07.221, True, 1.992, 0.134737
2023/06/22 09:03:07.717, True, 1.345, 0.131609
2023/06/22 09:03:08.221, True, 1.658, 0.134279
2023/06/22 09:03:08.725, True, 1.659, 0.133288
2023/06/22 09:03:09.221, True, 1.684, 0.134432
2023/06/22 09:03:09.725, True, 1.658, 0.133593
2023/06/22 09:03:10.229, True, 1.326, 0.135195
2023/06/22 09:03:10.725, True, 1.688, 0.136950
2023/06/22 09:03:11.229, True, 1.655, 0.134051
2023/06/22 09:03:11.733, True, 1.658, 0.133059
2023/06/22 09:03:12.237, True, 1.658, 0.135348
2023/06/22 09:03:12.733, True, 1.686, 0.133745
2023/06/22 09:03:13.237, True, 1.657, 0.133288
2023/06/22 09:03:13.741, True, 1.658, 0.135882
2023/06/22 09:03:14.237, True, 1.347, 0.134356
2023/06/22 09:03:14.741, True, 1.658, 0.133059
2023/06/22 09:03:15.245, True, 1.329, 0.133364
2023/06/22 09:03:15.741, True, 1.682, 0.135882
2023/06/22 09:03:16.245, True, 1.326, 0.135042
2023/06/22 09:03:16.749, True, 1.658, 0.132982
2023/06/22 09:03:17.245, True, 1.685, 0.133745
2023/06/22 09:03:17.749, True, 1.658, 0.134203
2023/06/22 09:03:18.253, True, 1.327, 0.132067
2023/06/22 09:03:18.749, True, 1.685, 0.132906
2023/06/22 09:03:19.253, True, 1.658, 0.135348
2023/06/22 09:03:19.757, True, 1.659, 0.131914
2023/06/22 09:03:20.253, True, 1.684, 0.133898
2023/06/22 09:03:20.757, True, 1.658, 0.134966
2023/06/22 09:03:21.261, True, 1.658, 0.135729
2023/06/22 09:03:21.757, True, 1.685, 0.133593
2023/06/22 09:03:22.261, True, 1.326, 0.134737
2023/06/22 09:03:22.765, True, 1.658, 0.132753
2023/06/22 09:03:23.261, True, 1.685, 0.134432
2023/06/22 09:03:23.765, True, 1.657, 0.133593
2023/06/22 09:03:24.268, True, 1.660, 0.132982
2023/06/22 09:03:24.765, True, 1.683, 0.133898
2023/06/22 09:03:25.269, True, 1.658, 0.133745
2023/06/22 09:03:25.773, True, 1.658, 0.135042
2023/06/22 09:03:26.269, True, 1.684, 0.133364
2023/06/22 09:03:26.773, True, 1.658, 0.131914
2023/06/22 09:03:27.277, True, 1.658, 0.134432
2023/06/22 09:03:27.773, True, 1.685, 0.133211
2023/06/22 09:03:28.277, True, 1.657, 0.133669
2023/06/22 09:03:28.773, True, 1.350, 0.133822
2023/06/22 09:03:29.277, True, 1.655, 0.132906
2023/06/22 09:03:29.781, True, 1.989, 0.131151
2023/06/22 09:03:30.285, True, 1.659, 0.133364
2023/06/22 09:03:30.781, True, 1.683, 0.132982
2023/06/22 09:03:31.285, True, 1.659, 0.133288
2023/06/22 09:03:31.781, True, 1.684, 0.130999
2023/06/22 09:03:32.285, True, 1.660, 0.133440
2023/06/22 09:03:32.789, True, 1.657, 0.134890
2023/06/22 09:03:33.285, True, 1.688, 0.133974
2023/06/22 09:03:33.789, True, 1.654, 0.133059
2023/06/22 09:03:34.293, True, 1.658, 0.134203
2023/06/22 09:03:34.797, True, 1.658, 0.131533
2023/06/22 09:03:35.293, True, 1.685, 0.133440
2023/06/22 09:03:35.797, True, 1.658, 0.135805
2023/06/22 09:03:36.293, True, 1.685, 0.131533
2023/06/22 09:03:36.797, True, 1.989, 0.134279
2023/06/22 09:03:37.301, True, 1.658, 0.134508
2023/06/22 09:03:37.805, True, 1.659, 0.131456
2023/06/22 09:03:38.301, True, 1.683, 0.134432
2023/06/22 09:03:38.805, True, 1.658, 0.132601
2023/06/22 09:03:39.308, True, 1.660, 0.134432
2023/06/22 09:03:39.805, True, 1.682, 0.134279
2023/06/22 09:03:40.308, True, 1.661, 0.131228
2023/06/22 09:03:40.813, True, 1.655, 0.132067
2023/06/22 09:03:41.309, True, 1.685, 0.133669
2023/06/22 09:03:41.813, True, 1.658, 0.132753
2023/06/22 09:03:42.316, True, 1.658, 0.132372
2023/06/22 09:03:42.813, True, 1.684, 0.130694
2023/06/22 09:03:43.317, True, 1.658, 0.132982
2023/06/22 09:03:43.813, True, 1.684, 0.134585
2023/06/22 09:03:44.316, True, 1.658, 0.131533
2023/06/22 09:03:44.821, True, 1.658, 0.131533
2023/06/22 09:03:45.317, True, 1.685, 0.133211
2023/06/22 09:03:45.821, True, 1.658, 0.132448
2023/06/22 09:03:46.325, True, 1.327, 0.132830
2023/06/22 09:03:46.820, True, 1.685, 0.133898
2023/06/22 09:03:47.324, True, 1.326, 0.136187
2023/06/22 09:03:47.829, True, 1.660, 0.131762
2023/06/22 09:03:48.325, True, 1.683, 0.133288
2023/06/22 09:03:48.829, True, 1.659, 0.132296
2023/06/22 09:03:49.333, True, 1.657, 0.131304
2023/06/22 09:03:49.837, True, 1.658, 0.130922
2023/06/22 09:03:50.333, True, 1.685, 0.133822
2023/06/22 09:03:50.837, True, 1.658, 0.130465
2023/06/22 09:03:51.341, True, 1.660, 0.135042
2023/06/22 09:03:51.837, True, 1.683, 0.129778
2023/06/22 09:03:52.341, True, 1.658, 0.130159
2023/06/22 09:03:52.845, True, 1.658, 0.133593
2023/06/22 09:03:53.341, True, 1.685, 0.132753
2023/06/22 09:03:53.845, True, 1.658, 0.131075
2023/06/22 09:03:54.341, True, 1.686, 0.131456
2023/06/22 09:03:54.845, True, 1.657, 0.131380
2023/06/22 09:03:55.349, True, 1.658, 0.133364
2023/06/22 09:03:55.844, True, 1.685, 0.132219
2023/06/22 09:03:56.349, True, 1.658, 0.132601
2023/06/22 09:03:56.853, True, 1.658, 0.131533
2023/06/22 09:03:57.349, True, 1.686, 0.131151
2023/06/22 09:03:57.853, True, 1.988, 0.133059
2023/06/22 09:03:58.357, True, 1.658, 0.132677
2023/06/22 09:03:58.853, True, 1.685, 0.133211
2023/06/22 09:03:59.357, True, 1.658, 0.130236
2023/06/22 09:03:59.861, True, 1.658, 0.130770
2023/06/22 09:04:00.356, True, 1.685, 0.132677
2023/06/22 09:04:00.861, True, 1.658, 0.131991
2023/06/22 09:04:01.364, True, 1.658, 0.130694
2023/06/22 09:04:01.861, True, 1.684, 0.131914
2023/06/22 09:04:02.365, True, 1.658, 0.129168
2023/06/22 09:04:02.861, True, 1.685, 0.133288
2023/06/22 09:04:03.365, True, 1.658, 0.131914
2023/06/22 09:04:03.869, True, 1.990, 0.131228
2023/06/22 09:04:04.365, True, 1.685, 0.131838
2023/06/22 09:04:04.869, True, 1.658, 0.132067
2023/06/22 09:04:05.373, True, 1.658, 0.133593
2023/06/22 09:04:05.869, True, 1.685, 0.131533
2023/06/22 09:04:06.373, True, 1.658, 0.131685
2023/06/22 09:04:06.877, True, 1.658, 0.134585
2023/06/22 09:04:07.373, True, 1.685, 0.131304
2023/06/22 09:04:07.877, True, 1.658, 0.131380
2023/06/22 09:04:08.381, True, 1.660, 0.131685
2023/06/22 09:04:08.877, True, 1.682, 0.131762
2023/06/22 09:04:09.381, True, 1.658, 0.132067
2023/06/22 09:04:09.885, True, 1.658, 0.130846
2023/06/22 09:04:10.381, True, 1.685, 0.129244
2023/06/22 09:04:10.885, True, 1.658, 0.131838
2023/06/22 09:04:11.389, True, 1.658, 0.130541